Regional Weather Roundup
Issued by NWS

Home | Current Version | Previous Version | Text Only | Print | Product List | Glossary Off
Versions: 1 2 3 4 5 6 7 8 9 10 11 12 13 14 15 16 17 18 19 20 21 22 23 24 25 26 27 28

000
ASUS45 KBOU 302107
RWRCO

WEATHER ROUNDUP FOR COLORADO
NATIONAL WEATHER SERVICE DENVER/BOULDER CO
300 PM MDT THU OCT 30 2014

NOTE: "FAIR" INDICATES FEW OR NO CLOUDS BELOW 12000 FEET WITH NO
SIGNIFICANT WEATHER AND/OR OBSTRUCTIONS TO VISIBILITY.

COZ001>005-013-030-031-302200-
...NORTHWEST COLORADO...

CITY           SKY/WX    TMP DP  RH WIND       PRES   REMARKS
CRAIG          SUNNY     62  25  24 CALM      30.33F
HAYDEN         SUNNY     61  25  25 W8        30.34F
MEEKER         SUNNY     64  26  23 W5        30.31F
MOUNT WERNER   NOT AVBL
STEAMBOAT SPGS SUNNY     58  28  30 S3        30.35F
WALDEN         SUNNY     54  23  30 N3        30.38F
$$

COZ006>008-011-302200-
...WEST CENTRAL VALLEYS...

CITY           SKY/WX    TMP DP  RH WIND       PRES   REMARKS
GRAND JUNCTION SUNNY     66  19  16 SE5       30.25F
MONTROSE       SUNNY     64  20  18 CALM      30.31F
EAGLE          SUNNY     63  23  22 CALM      30.35F
RIFLE          SUNNY     66  19  16 CALM      30.28F
DELTA          SUNNY     69  17  13 CALM      30.28F
NUCLA          SUNNY     68  19  15 NW5       30.31F
$$

COZ017>023-064>068-302200-
...SOUTHWEST COLORADO...

CITY           SKY/WX    TMP DP  RH WIND       PRES   REMARKS
DURANGO        SUNNY     66  22  18 SW7       30.32F
CORTEZ         SUNNY     66  21  18 SW6       30.29F
PAGOSA SPRINGS SUNNY     66  14  13 S3        30.36S
TELLURIDE      SUNNY     62  17  17 W9        30.44S
WOLF CREEK PAS SUNNY     46  18  31 S18G24    30.57S
$$

COZ009-010-012-014-032>034-037-058>063-302200-
...CENTRAL COLORADO...

CITY           SKY/WX    TMP DP  RH WIND       PRES   REMARKS
ASPEN          SUNNY     62  21  20 N8        30.36F
BUENA VISTA    SUNNY     62  17  17 CALM      30.34F
COPPER MTN     SUNNY     45  18  33 W21       30.56R
BERTHOUD PASS  FAIR      32  30  93 NW22G28   30.56R WCI  19
COTTONWOOD PAS SUNNY     59  12  15 SE7       30.44F
GUNNISON       SUNNY     61  21  21 SW12      30.38F
KREMMLING      SUNNY     59  19  21 CALM      30.37F
LEADVILLE      SUNNY     52  16  24 W13       30.44S
MONARCH PASS   SUNNY     45  18  33 SW18G28   30.65F
SALIDA         SUNNY     64  18  17 SE5       30.40F
SUNLIGHT       SUNNY     50  19  29 CALM      30.54S
WILKERSON PASS NOT AVBL
$$

COZ069>075-302200-
...SAN LUIS VALLEY/SANGRE DE CRISTO MOUNTAINS...

CITY           SKY/WX    TMP DP  RH WIND       PRES   REMARKS
ALAMOSA        SUNNY     64  17  16 SW5       30.34F
LA VETA PASS   SUNNY     46  21  36 NE7       30.48F
SAGUACHE       SUNNY     63  21  20 S9        30.35F
$$

COZ035-036-038>040-302200-
...NORTHERN COLORADO FRONT RANGE...

CITY           SKY/WX    TMP DP  RH WIND       PRES   REMARKS
DENVER INTL AP MOSUNNY   61  26  26 NE9       30.32F
DMNS CITY PARK   N/A     62  24  24 E12       30.31S
AURORA         MOSUNNY   61  26  26 NE10      30.33S
FRONT RANGE AP MOSUNNY   63  28  27 E6        30.33
ERIE MUNI ARPT SUNNY     62  24  24 NE3       30.31F
BOULDER MUN AP SUNNY     61  28  29 E3        30.31S
CENTENNIAL     MOSUNNY   61  27  27 E10       30.31F
BROOMFIELD     MOSUNNY   61  27  27 N3        30.33S
FORT COLLINS   SUNNY     61  28  29 SW7       30.33S
LONGMONT       SUNNY     65  26  22 CALM      30.33S
$$

COZ041-046-047-076>085-087-088-302200-
...PIKES PEAK/PALMER DIVIDE AND SOUTHERN FOOTHILLS...

CITY           SKY/WX    TMP DP  RH WIND       PRES   REMARKS
COLO. SPRINGS  MOSUNNY   60  22  23 S10       30.34F
A. F. ACADEMY  SUNNY     58  22  24 SE10      30.34F
ELLICOTT       SUNNY     59  23  25 S9        30.34F
FALCON         SUNNY     58  22  25 S6        30.37S
FORT CARSON    SUNNY     61  23  23 SE9       30.32F
LIMON          SUNNY     61  25  25 VRB6      30.33F
MONUMENT HILL  SUNNY     55  25  30 SE7       30.35S
TRINIDAD       SUNNY     62  22  21 VRB3      30.32F
$$

COZ042>045-048>051-090-091-302200-
...NORTHEAST COLORADO...

CITY           SKY/WX    TMP DP  RH WIND       PRES   REMARKS
GREELEY ARPT   SUNNY     63  28  27 S3        30.32F
AKRON          SUNNY     60  27  28 NW8       30.32F
BURLINGTON     SUNNY     64  24  21 NW18G24   30.30F
WRAY           SUNNY     68  24  19 NW12G21   30.29R
STERLING       NOT AVBL
HOLYOKE        SUNNY     66  28  24 N12G26    30.29S
FORT MORGAN    SUNNY     64  23  21 NE5       30.32S
$$

COZ086-089-092>099-302200-
...SOUTHEAST COLORADO...

CITY           SKY/WX    TMP DP  RH WIND       PRES   REMARKS
PUEBLO         SUNNY     65  23  20 VRB3      30.29F
LA JUNTA       SUNNY     67  25  20 VRB5      30.29F
LAMAR          SUNNY     69  25  19 N7        30.27S
SPRINGFIELD      N/A     65  25  22 N6        30.29F
$$



USA.gov is the U.S. government's official web portal to all federal, state and local government web resources and services.